Weather in Konchinka

Russia / Tula Oblast     54°39′59″N   38°09′00″E
temp.,
°C
wind,
m/s
gust,
m/s
humid.,
%
clouds,
%
prec.,
mm/h
press.,
hPa
HPBL,
m
23 may, mon
mon2300:00+1nne37795 0.0 1006138
03:00−1n33855 0.0 100745
06:00+2nnw357716 0.0 1007186
09:00+7nnw585722 0.0 10061398
12:00+9nnw685292 0.0 10051648
15:00+12nw584897 0.0 10052099
18:00+11nw475980 0.0 1004812
21:00+6w4965100 0.1 1005131
24 may, tue
tue2400:00+4w4964100 0.0 1005156
03:00+4wnw4966100 0.0 1006210
06:00+5wnw41067100 0.0 1006337
09:00+8nw61056100 0.0 10061115
12:00+8n81058100 0.0 10071613
15:00+7nnw696485 0.2 10091384
18:00+7nnw576597 0.1 10101301
21:00+5nnw377486 0.1 1012211
25 may, wed
wed2500:00+1nnw34908 0.0 101363
03:000nnw35945 0.0 101581
06:00+2nnw358643 0.0 1016199
09:00+6nnw456371 0.0 10161272
12:00+8nnw4557100 0.1 10161512
15:00+10n355284 0.1 10161570
18:00+10nw456373 0.0 1016953
21:00+6wnw348059 0.0 101644
26 may, thu
thu2600:00+4wsw34925 0.0 101655
03:00+3sw33945 0.0 101537
06:00+5ssw24892 0.0 1014109
09:00+12ssw467385 0.0 1011486
12:00+16ssw5867100 0.1 10071030
15:00+10se61493100 3.5 1004633
18:00+11wsw71197100 3.4 1000815
21:00+11w10168894 3.5 10011054
27 may, fri
fri2700:00+9wsw6169551 0.0 1001517
03:00+10wsw8159475 0.3 1000583
06:00+10w71392100 0.3 1001781
09:00+10w7129050 0.6 1001905
12:00+13wnw9118162 1.3 10031132
15:00+15wnw7107391 2.3 10041494
18:00+14w610735 0.4 10051152
21:00+10wsw4978100 0.5 1005191